Regional Weather Roundup
Issued by NWS

Home | Current Version | Previous Version | Text Only | Print | Product List | Glossary On
Versions: 1 2 3 4 5 6 7 8 9 10 11 12 13 14 15 16 17 18 19 20 21 22 23 24 25 26 27 28 29 30 31 32 33 34 35 36 37 38 39 40 41 42 43 44 45 46 47 48 49 50
000
ASUS42 KFFC 241910
RWRGA
WEATHER ROUNDUP FOR GEORGIA
NATIONAL WEATHER SERVICE PEACHTREE CITY GA
300 PM EDT WED MAY 24 2017

NOTE: "FAIR" INDICATES FEW OR NO CLOUDS BELOW 12,000 FEET WITH NO
SIGNIFICANT WEATHER AND/OR OBSTRUCTIONS TO VISIBILITY.

* = USE WITH CAUTION. THE STATIONS MARKED WITH AN ASTERISK MAY NOT
REPORT WEATHER SUCH AS PRECIPITATION, FOG, OR THUNDER AND ARE NOT
QUALITY CONTROLLED BY NWS.

THE REMARK "TC" DENOTES TEMPERATURE READING IN DEGREES CELSIUS.

GAZ001>058-242000-
NORTH GEORGIA

CITY           SKY/WX    TMP DP  RH WIND       PRES   REMARKS
ATLANTA        MOSUNNY   77  60  55 SW13G23   29.50F
ATHENS         TSTM      72  70  93 S9G22     29.50F FOG
CHAMBLEE       PTSUNNY   78  61  55 W15G24    29.50F
PEACHTREE CITY MOSUNNY   79  61  53 W10G25    29.51F
ROME           MOSUNNY   74  63  68 W12G23    29.48F
WEST ATLANTA   PTSUNNY   79  62  56 SW16G23   29.49F
GAINESVILLE    CLOUDY    76  64  66 SW7       29.51F
CARTERSVILLE   MOSUNNY   73  62  68 VRB3      29.51F


CITY           SKY/WX    TMP DP  RH WIND       PRES   REMARKS
DALTON*        PTSUNNY   70  63  78 S7        29.49F
LAWRENCEVILLE* PTSUNNY   77  63  61 SW12G23   29.51F
MARIETTA       LGT RAIN  78  60  54 W29G38    29.51S
KENNESAW*      PTSUNNY   72  61  68 W16G25    29.50F
CANTON*        LGT RAIN  68  59  73 W7        29.54R
$$

GAZ059>098-102>109-242000-
CENTRAL GEORGIA

CITY           SKY/WX    TMP DP  RH WIND       PRES   REMARKS
AUGUSTA-BUSH   LGT RAIN  79  70  74 S14G26    29.53F
AUGUSTA-DANIEL CLOUDY    78  67  68 S14G26    29.55F
COLUMBUS       PTSUNNY   81  61  50 W15G24    29.51F
MACON          LGT RAIN  69  67  93 S8        29.54F
ROBINS AFB     LGT RAIN  69  68  94 S6        29.53F


CITY           SKY/WX    TMP DP  RH WIND       PRES   REMARKS
LAGRANGE*      PTSUNNY   80  67  64 W14       29.52S
SYLVANIA*      CLOUDY    73  71  94 S12       29.62F
MILLEDGEVILLE* CLOUDY    70  70 100 SW5       29.54F
$$

GAZ099>101-110>166-242000-
SOUTH GEORGIA

CITY           SKY/WX    TMP DP  RH WIND       PRES   REMARKS
SAVANNAH       HVY RAIN  72  66  81 SE21      29.65F
VALDOSTA       LGT RAIN  72  70  93 S12       29.61F
ALMA           CLOUDY    73  68  84 S12       29.61F
ST SIMONS      LGT RAIN  72  71  97 S5        29.66F
FT STEWART     CLOUDY    68  66  94 SE8       29.62F
ALBANY         HVY RAIN  68  65  90 W14G23    29.57F FOG
HUNTER AFB     RAIN      68  68 100 S8G18     29.68F FOG
MOODY AFB      PTSUNNY   73  68  83 S13       29.59F
BRUNSWICK      LGT RAIN  72  72 100 S6        29.67F


CITY           SKY/WX    TMP DP  RH WIND       PRES   REMARKS
BAINBRIDGE*    CLOUDY    77  70  78 S13       29.57F
MOULTRIE*      CLOUDY    77  70  78 SW10G21   29.59F
VIDALIA*       CLOUDY    73  68  83 S10G17    29.59F
WAYCROSS*      CLOUDY    76  75  96 SW9       29.62F
DOUGLAS*       CLOUDY    72  68  88 S9        29.61F
$$



USA.gov is the U.S. government's official web portal to all federal, state and local government web resources and services.